KQ4NAL Weather Reports


Display with metric or nautical units.
time (UTC)temp
F
wind
direction
speed
MPH
gust
MPH
rain 1hr
in
rain 24hr
in
rain mn
in
humidity
%
barometer
mb
20260502163047 53 358 3.0 5.0 0.00 0.00 0.00 50 1019.0
20260502162544 52 4 1.0 2.0 0.00 0.00 0.00 51 1019.0
20260502162041 53 350 0.0 1.0 0.00 0.00 0.00 56 1019.2
20260502161538 55 348 4.0 5.0 0.00 0.00 0.00 50 1019.2
20260502161036 54 325 4.0 5.0 0.00 0.00 0.00 51 1019.0
20260502160534 53 117 1.0 2.0 0.00 0.00 0.00 51 1019.2
20260502151941 51 341 4.0 7.0 0.00 0.00 0.00 53 1019.5
20260502151437 51 9 2.0 3.0 0.00 0.00 0.00 54 1019.6
20260502150935 51 354 5.0 7.0 0.00 0.00 0.00 55 1019.4
20260502150432 51 344 3.0 5.0 0.00 0.00 0.00 55 1019.5
20260502130317 42 332 2.0 3.0 0.00 0.00 0.00 93 1019.1
20260502123803 40 8 3.0 5.0 0.00 0.00 0.00 99 1019.3
20260502123300 40 7 3.0 3.0 0.00 0.00 0.00 99 1019.2
20260502122756 39 354 1.0 1.0 0.00 0.00 0.00 99 1019.2
20260502122253 39 359 2.0 2.0 0.00 0.00 0.00 99 1019.2
20260502121751 38 357 0.0 0.0 0.00 0.00 0.00 99 1019.0
20260502121249 38 7 0.0 0.0 0.00 0.00 0.00 99 1019.1
20260502120745 39 355 0.0 0.0 0.00 0.00 0.00 99 1019.0
20260502120242 39 357 0.0 0.0 0.00 0.00 0.00 99 1018.8
20260502115740 38 356 0.0 0.0 0.00 0.00 0.00 99 1018.9
20260502115236 37 0 0.0 0.0 0.00 0.00 0.00 99 1018.8
20260502114732 37 2 0.0 0.0 0.00 0.00 0.00 99 1018.7
20260502114229 38 0 0.0 0.0 0.00 0.00 0.00 99 1018.6
20260502113726 37 1 0.0 0.0 0.00 0.00 0.00 99 1018.7
20260502113224 34 2 0.0 0.0 0.00 0.00 0.00 99 1018.6
20260502112722 34 357 0.0 0.0 0.00 0.00 0.00 99 1018.7
20260502112220 34 357 0.0 0.0 0.00 0.00 0.00 99 1018.9
20260502111716 33 358 0.0 0.0 0.00 0.00 0.00 99 1018.7
20260502111214 33 359 0.0 0.0 0.00 0.00 0.00 99 1018.8
20260502110712 33 359 0.0 0.0 0.00 0.00 0.00 99 1018.6
20260502110209 34 359 0.0 0.0 0.00 0.00 0.00 99 1018.6
20260502105707 34 359 0.0 0.0 0.00 0.00 0.00 99 1018.7
20260502105203 34 359 0.0 0.0 0.00 0.00 0.00 99 1018.7
20260502104700 33 359 0.0 0.0 0.00 0.00 0.00 99 1018.8
20260502104158 34 358 0.0 0.0 0.00 0.00 0.00 99 1018.5
20260502103655 34 2 0.0 1.0 0.00 0.00 0.00 99 1018.4
20260502103153 34 359 0.0 0.0 0.00 0.00 0.00 99 1018.6
20260502102650 34 0 0.0 0.0 0.00 0.00 0.00 99 1018.6
20260502102146 34 1 0.0 0.0 0.00 0.00 0.00 99 1018.7
20260502101644 34 358 0.0 0.0 0.00 0.00 0.00 99 1018.6
20260502101142 34 358 0.0 0.0 0.00 0.00 0.00 99 1018.6
20260502100641 34 359 0.0 0.0 0.00 0.00 0.00 99 1018.6
20260502100138 34 359 0.0 0.0 0.00 0.00 0.00 99 1018.7
20260502091113 33 359 0.0 0.0 0.00 0.00 0.00 99 1018.5
20260502090609 33 359 0.0 0.0 0.00 0.00 0.00 99 1018.6
20260502090107 33 359 0.0 0.0 0.00 0.00 0.00 98 1018.9
20260502071504 34 0 0.0 0.0 0.00 0.00 0.00 97 1018.3
20260502071002 34 0 0.0 0.0 0.00 0.00 0.00 97 1017.9
20260502070500 35 1 0.0 0.0 0.00 0.00 0.00 97 1018.2
20260502065958 35 2 0.0 0.0 0.00 0.00 0.00 97 1018.3
20260502065456 35 359 0.0 0.0 0.00 0.00 0.00 97 1018.3
20260502064954 35 359 0.0 0.0 0.00 0.00 0.00 97 1018.3
20260502064452 35 359 0.0 0.0 0.00 0.00 0.00 97 1018.5
20260502063948 35 358 0.0 0.0 0.00 0.00 0.00 97 1018.6
20260502063446 35 358 0.0 0.0 0.00 0.00 0.00 97 1018.6
20260502062944 36 357 0.0 0.0 0.00 0.00 0.00 97 1018.6
20260502062441 36 1 0.0 0.0 0.00 0.00 0.00 97 1018.5
20260502061939 35 358 0.0 0.0 0.00 0.00 0.00 97 1018.6
20260502061437 35 359 0.0 0.0 0.00 0.00 0.00 97 1018.6
20260502060933 35 355 0.0 0.0 0.00 0.00 0.00 97 1018.9
20260502060428 36 357 0.0 0.0 0.00 0.00 0.00 96 1018.8
20260502055925 35 358 0.0 0.0 0.00 0.00 0.00 96 1019.0
20260502055423 36 358 0.0 0.0 0.00 0.00 0.00 96 1019.1
20260502054923 36 358 0.0 0.0 0.00 0.00 0.00 96 1018.9
20260502054420 36 358 0.0 0.0 0.00 0.00 0.00 96 1018.7
20260502053917 35 358 0.0 0.0 0.00 0.00 0.00 96 1019.0
20260502053415 36 358 0.0 0.0 0.00 0.00 0.00 96 1018.9
20260502052912 35 358 0.0 0.0 0.00 0.00 0.00 96 1018.9
20260502052410 36 358 0.0 0.0 0.00 0.00 0.00 96 1018.7
20260502051907 36 358 0.0 0.0 0.00 0.00 0.00 96 1018.9
20260502051406 36 358 0.0 0.0 0.00 0.00 0.00 95 1018.6
20260502050902 36 358 0.0 0.0 0.00 0.00 0.00 95 1018.9
20260502050359 35 358 0.0 0.0 0.00 0.00 0.00 95 1018.9
20260502045856 36 358 0.0 0.0 0.00 0.00 0.00 95 1019.0
20260502045352 36 358 0.0 0.0 0.00 0.00 0.00 95 1019.0
20260502044850 35 359 0.0 0.0 0.00 0.00 0.00 95 1018.8
20260502044345 35 359 0.0 0.0 0.00 0.00 0.00 95 1018.8
20260502043843 35 359 0.0 0.0 0.00 0.00 0.00 95 1018.9
20260502043341 36 359 0.0 0.0 0.00 0.00 0.00 95 1019.1
20260502042840 36 359 0.0 0.0 0.00 0.00 0.00 94 1019.0
20260502042337 36 359 0.0 0.0 0.00 0.00 0.00 94 1019.2
20260502041835 36 359 0.0 0.0 0.00 0.00 0.00 94 1019.2
20260502041332 36 359 0.0 0.0 0.00 0.00 0.00 94 1019.1
20260502040829 37 359 0.0 0.0 0.00 0.00 0.00 94 1018.9
20260502040326 37 358 0.0 0.0 0.00 0.00 0.00 94 1019.0
20260502035822 37 358 0.0 0.0 0.00 0.00 0.00 94 1018.9
20260502035319 37 358 0.0 0.0 0.00 0.00 0.00 93 1018.8
20260502034816 37 358 0.0 0.0 0.00 0.00 0.00 93 1018.9
20260502034314 37 359 0.0 0.0 0.00 0.00 0.00 93 1018.9
20260502033812 37 1 0.0 0.0 0.00 0.00 0.00 93 1018.8
20260502033310 37 358 0.0 0.0 0.00 0.00 0.00 93 1018.7
20260502032806 37 357 0.0 0.0 0.00 0.00 0.00 93 1018.8
20260502032305 38 357 0.0 0.0 0.00 0.00 0.00 92 1019.0
20260502031800 38 357 0.0 0.0 0.00 0.00 0.00 92 1019.0
20260502031258 38 358 0.0 0.0 0.00 0.00 0.00 92 1018.9
20260502030757 37 0 0.0 0.0 0.00 0.00 0.00 92 1018.9
20260502030254 38 1 0.0 0.0 0.00 0.00 0.00 92 1019.0
20260502025751 38 0 0.0 0.0 0.00 0.00 0.00 91 1019.0
20260502025249 38 358 0.0 0.0 0.00 0.00 0.00 91 1019.0
20260502024746 38 0 0.0 0.0 0.00 0.00 0.00 91 1018.9
20260502024244 39 0 0.0 0.0 0.00 0.00 0.00 90 1018.9
20260502023742 39 3 0.0 0.0 0.00 0.00 0.00 90 1018.8
20260502023239 39 0 0.0 0.0 0.00 0.00 0.00 89 1018.6
20260502022737 39 0 0.0 0.0 0.00 0.00 0.00 88 1018.6
20260502022233 39 0 0.0 0.0 0.00 0.00 0.00 88 1018.6
20260502021730 39 0 0.0 0.0 0.00 0.00 0.00 86 1018.4
20260502021228 40 0 0.0 0.0 0.00 0.00 0.00 86 1018.5
20260502020725 40 0 0.0 0.0 0.00 0.00 0.00 85 1018.3
20260502020222 40 0 0.0 0.0 0.00 0.00 0.00 85 1018.5
20260502015720 41 0 0.0 0.0 0.00 0.00 0.00 85 1018.2
20260502015216 41 0 0.0 0.0 0.00 0.00 0.00 85 1018.3
20260502014714 40 358 0.0 0.0 0.00 0.00 0.00 84 1018.3
20260502014210 41 357 0.0 0.0 0.00 0.00 0.00 84 1018.1
20260502013706 41 357 0.0 0.0 0.00 0.00 0.00 83 1017.9
20260502013201 41 359 0.0 0.0 0.00 0.00 0.00 82 1017.7
20260502012659 42 357 0.0 0.0 0.00 0.00 0.00 81 1017.6
20260502012157 42 358 0.0 0.0 0.00 0.00 0.00 79 1017.6
20260502011653 42 358 0.0 0.0 0.00 0.00 0.00 79 1017.7
20260502011149 43 2 0.0 0.0 0.00 0.00 0.00 78 1017.7
20260502010647 43 2 0.0 0.0 0.00 0.00 0.00 77 1017.7
20260502010143 44 2 0.0 0.0 0.00 0.00 0.00 76 1017.7
20260502005641 44 2 0.0 0.0 0.00 0.00 0.00 75 1017.3
20260502005138 45 0 0.0 0.0 0.00 0.00 0.00 72 1017.3
20260502004634 45 1 0.0 0.0 0.00 0.00 0.00 71 1017.0
20260502004131 46 1 0.0 0.0 0.00 0.00 0.00 70 1017.1
20260502003629 46 0 0.0 0.0 0.00 0.00 0.00 69 1017.0
20260502003126 47 2 0.0 0.0 0.00 0.00 0.00 68 1016.7
20260502002622 48 0 0.0 0.0 0.00 0.00 0.00 65 1016.4
20260502002120 49 355 1.0 1.0 0.00 0.00 0.00 63 1016.1
20260502001617 49 359 1.0 1.0 0.00 0.00 0.00 62 1016.1
20260502001114 49 358 0.0 0.0 0.00 0.00 0.00 63 1015.9
20260502000612 50 358 0.0 0.0 0.00 0.00 0.00 62 1015.9
20260502000109 51 358 0.0 0.0 0.00 0.00 0.00 60 1015.9
20260501235605 51 342 3.0 3.0 0.00 0.00 0.00 58 1016.0
20260501235101 52 12 4.0 5.0 0.00 0.00 0.00 57 1016.2
20260501234557 52 331 4.0 5.0 0.00 0.00 0.00 56 1016.4
20260501234055 53 340 1.0 2.0 0.00 0.00 0.00 56 1016.4
20260501233553 52 346 1.0 2.0 0.00 0.00 0.00 56 1016.5
20260501233049 52 352 3.0 3.0 0.00 0.00 0.00 56 1016.5
20260501232545 52 2 4.0 5.0 0.00 0.00 0.00 56 1016.6
20260501232043 52 355 2.0 3.0 0.00 0.00 0.00 58 1016.6
20260501231540 53 312 2.0 2.0 0.00 0.00 0.00 55 1016.4
20260501231039 53 351 2.0 2.0 0.00 0.00 0.00 55 1016.2
20260501230537 54 339 4.0 7.0 0.00 0.00 0.00 56 1016.1
20260501230035 54 349 2.0 2.0 0.00 0.00 0.00 56 1016.3
20260501225532 54 7 3.0 5.0 0.00 0.00 0.00 56 1016.2
20260501225028 54 330 6.0 7.0 0.00 0.00 0.00 57 1016.0
20260501224526 53 333 2.0 2.0 0.00 0.00 0.00 59 1016.3
20260501224023 53 329 5.0 7.0 0.00 0.00 0.00 58 1016.2
20260501223519 53 334 3.0 5.0 0.00 0.00 0.00 57 1016.3
20260501223015 53 352 6.0 8.0 0.00 0.00 0.00 56 1016.2
20260501222512 53 352 3.0 3.0 0.00 0.00 0.00 57 1016.1
20260501222009 55 332 5.0 6.0 0.00 0.00 0.00 54 1016.1
20260501221505 54 322 3.0 6.0 0.00 0.00 0.00 57 1016.1
20260501221003 53 44 6.0 9.0 0.00 0.00 0.00 58 1016.0
20260501220500 55 26 7.0 9.0 0.00 0.00 0.00 55 1016.0
20260501215956 55 10 9.0 14.0 0.00 0.00 0.00 55 1016.0
20260501215453 55 340 8.0 9.0 0.00 0.00 0.00 55 1016.0
20260501214948 55 327 7.0 9.0 0.00 0.00 0.00 55 1016.1
20260501214444 55 347 8.0 10.0 0.00 0.00 0.00 56 1016.0
20260501213940 57 17 5.0 7.0 0.00 0.00 0.00 54 1015.5
20260501213437 55 352 4.0 6.0 0.00 0.00 0.00 55 1015.6
20260501212932 56 325 7.0 9.0 0.00 0.00 0.00 55 1016.0
20260501212430 56 304 8.0 13.0 0.00 0.00 0.00 54 1015.8
20260501211926 56 335 9.0 11.0 0.00 0.00 0.00 54 1015.9
20260501211424 56 13 14.0 17.0 0.00 0.00 0.00 56 1015.8
20260501210921 56 334 7.0 8.0 0.00 0.00 0.00 56 1015.7
20260501210418 56 7 3.0 5.0 0.00 0.00 0.00 55 1015.7
20260501205914 57 53 8.0 10.0 0.00 0.00 0.00 55 1015.4
20260501205411 55 335 12.0 14.0 0.00 0.00 0.00 56 1015.8
20260501204908 55 358 6.0 8.0 0.00 0.00 0.00 58 1015.7
20260501204404 56 329 8.0 10.0 0.00 0.00 0.00 55 1015.7
20260501203900 57 358 3.0 5.0 0.00 0.00 0.00 55 1015.8
20260501203358 56 11 3.0 7.0 0.00 0.00 0.00 56 1015.8
20260501202855 55 300 6.0 8.0 0.00 0.00 0.00 56 1015.6
20260501202352 56 9 6.0 11.0 0.00 0.00 0.00 55 1015.5
20260501201848 57 10 8.0 10.0 0.00 0.00 0.00 56 1015.4
20260501201345 56 12 9.0 13.0 0.00 0.00 0.00 59 1015.6
20260501200842 56 334 7.0 9.0 0.00 0.00 0.00 55 1015.7
20260501200339 57 338 3.0 3.0 0.00 0.00 0.00 54 1015.5
20260501195837 55 353 7.0 8.0 0.00 0.00 0.00 56 1015.5
20260501195332 56 347 2.0 5.0 0.00 0.00 0.00 58 1015.7
20260501194829 57 329 3.0 5.0 0.00 0.00 0.00 54 1015.7
20260501194325 58 0 8.0 11.0 0.00 0.00 0.00 53 1015.6
20260501193821 57 15 5.0 7.0 0.00 0.00 0.00 53 1015.5
20260501193320 56 283 3.0 3.0 0.00 0.00 0.00 56 1015.7
20260501192817 56 346 1.0 2.0 0.00 0.00 0.00 54 1015.4
20260501192314 57 315 3.0 5.0 0.00 0.00 0.00 53 1015.4
20260501191811 57 329 2.0 2.0 0.00 0.00 0.00 54 1015.5
20260501191308 56 330 3.0 5.0 0.00 0.00 0.00 58 1015.6
20260501190805 56 6 2.0 2.0 0.00 0.00 0.00 58 1015.6
20260501190300 56 290 2.0 2.0 0.00 0.00 0.00 58 1015.6
20260501185756 57 296 4.0 5.0 0.00 0.00 0.00 58 1015.7
20260501185252 58 354 4.0 8.0 0.00 0.00 0.00 56 1015.5
20260501184748 55 357 1.0 1.0 0.00 0.00 0.00 62 1015.4
20260501184244 55 345 4.0 7.0 0.00 0.00 0.00 58 1015.7
20260501183740 56 350 8.0 10.0 0.00 0.00 0.00 57 1015.6
20260501183237 57 260 5.0 6.0 0.00 0.00 0.00 58 1015.3
20260501182733 58 308 4.0 6.0 0.00 0.00 0.00 57 1015.5
20260501182231 58 3 3.0 5.0 0.00 0.00 0.00 58 1015.4
20260501181727 57 354 8.0 11.0 0.00 0.00 0.00 58 1015.3
20260501181225 58 317 5.0 7.0 0.00 0.00 0.00 59 1015.3
20260501180723 56 291 3.0 5.0 0.00 0.00 0.00 63 1015.4
20260501180218 55 276 2.0 3.0 0.00 0.00 0.00 62 1015.3
20260501175715 55 29 1.0 2.0 0.00 0.00 0.00 61 1015.3
20260501175212 57 7 4.0 6.0 0.00 0.00 0.00 59 1015.1
20260501174708 58 15 3.0 5.0 0.00 0.00 0.00 59 1015.1
20260501174206 57 334 2.0 3.0 0.00 0.00 0.00 62 1015.1
20260501173704 56 25 2.0 2.0 0.00 0.00 0.00 64 1015.1
20260501173201 57 280 8.0 10.0 0.00 0.00 0.00 61 1015.2
20260501172657 58 333 2.0 3.0 0.00 0.00 0.00 61 1014.9
20260501172152 59 349 1.0 1.0 0.00 0.00 0.00 59 1014.8
20260501171648 58 257 3.0 5.0 0.00 0.00 0.00 60 1014.8
20260501171145 56 338 3.0 5.0 0.00 0.00 0.00 64 1015.0
20260501170642 54 329 3.0 5.0 0.00 0.00 0.00 67 1015.0
20260501170139 54 280 5.0 7.0 0.00 0.00 0.00 69 1015.0
20260501165636 54 232 2.0 3.0 0.00 0.00 0.00 70 1014.9
20260501165133 54 346 1.0 1.0 0.00 0.00 0.00 74 1014.8
20260501164632 53 260 7.0 8.0 0.00 0.00 0.00 74 1015.1
20260501164128 53 354 2.0 3.0 0.00 0.00 0.00 74 1014.8
20260501163624 54 4 3.0 5.0 0.00 0.00 0.00 73 1015.0